FW1075 Weather Reports


Display with metric or nautical units.
time (UTC)temp
F
wind
direction
speed
MPH
gust
MPH
rain 1hr
in
rain 24hr
in
rain mn
in
humidity
%
barometer
mb
20260510120121 53 111 2.0 3.0 0.00 0.22 0.00 99 1010.6
20260510115121 53 108 2.0 3.0 0.00 0.22 0.00 99 1010.6
20260510114121 53 106 2.0 4.0 0.00 0.22 0.00 99 1010.5
20260510113122 53 121 2.0 4.0 0.00 0.22 0.00 99 1010.4
20260510112121 52 102 3.0 4.0 0.00 0.22 0.00 99 1010.2
20260510111142 52 102 2.0 4.0 0.00 0.22 0.00 99 1010.4
20260510110121 52 109 3.0 5.0 0.00 0.22 0.00 99 1010.4
20260510105142 52 83 1.0 4.0 0.00 0.22 0.00 99 1010.4
20260510104121 52 117 2.0 5.0 0.00 0.22 0.00 99 1010.2
20260510103121 51 84 2.0 5.0 0.00 0.22 0.00 99 1010.2
20260510102143 51 92 2.0 4.0 0.00 0.22 0.00 99 1010.2
20260510101122 51 61 2.0 3.0 0.00 0.22 0.00 99 1010.2
20260510100123 51 2 1.0 3.0 0.00 0.22 0.00 99 1010.2
20260510095122 51 30 3.0 6.0 0.00 0.22 0.00 99 1010.4
20260510094122 51 312 2.0 4.0 0.00 0.22 0.00 99 1010.6
20260510093144 51 24 2.0 5.0 0.00 0.22 0.00 99 1010.6
20260510092123 51 343 2.0 4.0 0.00 0.22 0.00 99 1010.6
20260510091122 52 323 2.0 6.0 0.00 0.22 0.00 99 1010.7
20260510090121 52 316 3.0 6.0 0.00 0.22 0.00 99 1010.7
20260510085122 52 53 1.0 3.0 0.00 0.22 0.00 99 1010.5
20260510084121 52 310 0.0 2.0 0.00 0.22 0.00 99 1009.8
20260510083121 52 113 0.0 2.0 0.00 0.22 0.00 99 1009.8
20260510082122 52 44 0.0 2.0 0.00 0.22 0.00 99 1009.9
20260510081123 52 61 1.0 3.0 0.00 0.22 0.00 99 1009.8
20260510080144 52 89 1.0 2.0 0.00 0.22 0.00 99 1009.8
20260510075122 52 111 1.0 3.0 0.00 0.22 0.00 99 1009.6
20260510074122 52 102 0.0 3.0 0.00 0.22 0.00 99 1009.7
20260510073121 52 293 1.0 3.0 0.00 0.22 0.00 99 1009.7
20260510072121 52 331 0.0 2.0 0.00 0.22 0.00 99 1009.6
20260510071121 52 355 1.0 3.0 0.00 0.22 0.00 99 1009.6
20260510070122 52 73 1.0 2.0 0.00 0.22 0.00 99 1009.6
20260510065123 52 90 0.0 2.0 0.00 0.22 0.00 99 1009.4
20260510064123 52 144 0.0 3.0 0.00 0.22 0.00 99 1009.2
20260510063145 52 110 1.0 2.0 0.00 0.22 0.00 99 1009.2
20260510062122 52 90 1.0 2.0 0.00 0.22 0.00 99 1009.2
20260510061124 52 90 0.0 1.0 0.00 0.22 0.00 99 1009.2
20260510060123 52 23 0.0 3.0 0.00 0.22 0.00 99 1009.2
20260510055122 52 69 1.0 3.0 0.00 0.22 0.00 99 1009.4
20260510054122 52 80 1.0 2.0 0.00 0.22 0.00 99 1009.4
20260510053124 52 97 0.0 2.0 0.00 0.22 0.00 99 1009.5
20260510052121 52 58 0.0 2.0 0.00 0.22 0.00 99 1009.6
20260510051121 52 105 0.0 2.0 0.00 0.22 0.00 99 1009.8
20260510050121 52 180 0.0 0.0 0.00 0.22 0.00 99 1009.8
20260510045121 52 113 0.0 2.0 0.00 0.22 0.00 99 1009.7
20260510044121 52 113 0.0 2.0 0.00 0.22 0.00 99 1009.7
20260510043121 52 86 1.0 3.0 0.00 0.22 0.00 99 1009.7
20260510042122 52 110 1.0 3.0 0.00 0.22 0.00 99 1009.6
20260510041122 52 100 0.0 2.0 0.00 0.22 0.00 99 1009.5
20260510040127 52 206 1.0 3.0 0.00 0.22 0.00 99 1009.5
20260510035127 52 113 1.0 3.0 0.00 0.22 0.22 99 1009.2
20260510034121 53 102 2.0 3.0 0.00 0.22 0.22 99 1009.2
20260510033122 53 123 2.0 2.0 0.00 0.22 0.22 99 1009.2
20260510032121 53 113 0.0 1.0 0.00 0.22 0.22 99 1009.2
20260510031121 53 114 1.0 3.0 0.00 0.22 0.22 99 1009.2
20260510030121 53 99 2.0 3.0 0.00 0.22 0.22 99 1009.2
20260510025122 53 96 1.0 3.0 0.00 0.22 0.22 99 1009.2
20260510024122 53 127 1.0 2.0 0.00 0.22 0.22 99 1009.4
20260510023122 53 172 1.0 3.0 0.00 0.22 0.22 99 1009.2
20260510022122 53 103 3.0 4.0 0.00 0.22 0.22 99 1009.4
20260510021128 53 142 1.0 3.0 0.00 0.22 0.22 99 1009.2
20260510020122 53 207 1.0 2.0 0.00 0.22 0.22 99 1009.2
20260510015122 53 128 2.0 3.0 0.00 0.22 0.22 99 1009.2
20260510014122 53 139 1.0 4.0 0.00 0.22 0.22 99 1009.2
20260510013143 53 129 2.0 4.0 0.00 0.22 0.22 99 1009.1
20260510012124 53 130 1.0 3.0 0.00 0.22 0.22 99 1009.0
20260510011145 53 112 1.0 3.0 0.00 0.22 0.22 99 1009.0
20260510010122 52 113 0.0 0.0 0.00 0.22 0.22 99 1009.0
20260510005123 52 45 0.0 0.0 0.01 0.22 0.22 99 1008.9
20260510004121 53 113 0.0 0.0 0.01 0.22 0.22 99 1008.9
20260510003142 54 180 0.0 0.0 0.01 0.22 0.22 99 1008.8
20260510002121 54 248 0.0 0.0 0.01 0.22 0.22 99 1008.6
20260510001124 55 180 0.0 0.0 0.01 0.22 0.22 99 1008.4
20260510000124 55 117 1.0 3.0 0.01 0.22 0.22 99 1008.4
20260509235121 55 97 2.0 5.0 0.01 0.21 0.21 99 1008.2
20260509234123 56 114 0.0 2.0 0.04 0.21 0.21 99 1008.5
20260509233144 56 71 1.0 3.0 0.04 0.21 0.21 99 1008.2
20260509232144 56 95 1.0 3.0 0.05 0.21 0.21 99 1008.4
20260509231121 56 121 1.0 3.0 0.10 0.21 0.21 99 1008.8
20260509230121 56 8 2.0 4.0 0.10 0.21 0.21 99 1009.0
20260509225125 56 164 2.0 4.0 0.09 0.20 0.20 99 1009.0
20260509224144 57 208 2.0 4.0 0.06 0.17 0.17 99 1009.2
20260509223121 57 134 2.0 4.0 0.06 0.17 0.17 99 1009.0
20260509222143 57 97 2.0 5.0 0.05 0.16 0.16 99 1009.8
20260509221146 58 230 1.0 2.0 0.00 0.11 0.11 99 1008.8
20260509220121 57 104 2.0 4.0 0.00 0.11 0.11 99 1008.8
20260509215143 57 193 1.0 2.0 0.00 0.11 0.11 99 1009.4
20260509214128 57 186 1.0 3.0 0.00 0.11 0.11 99 1009.2
20260509213122 57 156 1.0 3.0 0.00 0.11 0.11 99 1009.2
20260509212122 57 113 2.0 3.0 0.00 0.11 0.11 99 1009.4
20260509211121 57 143 1.0 4.0 0.01 0.11 0.11 99 1009.2
20260509210121 57 179 2.0 3.0 0.01 0.11 0.11 99 1009.2
20260509205123 57 245 3.0 5.0 0.01 0.11 0.11 99 1009.4
20260509204142 57 224 2.0 5.0 0.01 0.11 0.11 99 1009.4
20260509203142 57 247 3.0 6.0 0.01 0.11 0.11 99 1009.2
20260509202123 57 245 4.0 8.0 0.01 0.11 0.11 99 1009.4
20260509201142 57 232 3.0 6.0 0.00 0.10 0.10 99 1009.2
20260509200146 58 201 3.0 5.0 0.00 0.10 0.10 99 1009.2
20260509195122 58 254 4.0 7.0 0.02 0.10 0.10 99 1009.2
20260509194143 58 194 3.0 5.0 0.02 0.10 0.10 99 1009.5
20260509193121 57 252 3.0 7.0 0.04 0.10 0.10 99 1009.5
20260509192121 57 236 2.0 4.0 0.04 0.10 0.10 99 1009.4
20260509191142 57 126 2.0 4.0 0.05 0.10 0.10 99 1009.6
20260509190121 57 228 2.0 5.0 0.05 0.10 0.10 99 1009.6
20260509185123 57 211 3.0 5.0 0.04 0.08 0.08 99 1010.0
20260509184143 58 154 2.0 5.0 0.05 0.08 0.08 99 1009.9
20260509183122 58 235 2.0 4.0 0.03 0.06 0.06 99 1009.7
20260509182124 58 178 3.0 8.0 0.04 0.06 0.06 99 1009.2
20260509181143 58 74 1.0 2.0 0.04 0.05 0.05 99 1009.5
20260509180122 58 174 2.0 4.0 0.05 0.05 0.05 99 1009.5
20260509175122 58 205 2.0 4.0 0.04 0.04 0.04 99 1009.5
20260509174144 58 235 2.0 3.0 0.03 0.03 0.03 99 1009.2
20260509173125 58 163 2.0 5.0 0.03 0.03 0.03 99 1009.6
20260509172145 58 222 2.0 5.0 0.02 0.02 0.02 99 1009.2
20260509171121 59 165 2.0 13.0 0.01 0.01 0.01 97 1009.8
20260509170142 60 238 4.0 7.0 0.00 0.00 0.00 95 1009.6
20260509165121 60 221 3.0 6.0 0.00 0.00 0.00 93 1009.6
20260509164122 62 207 3.0 6.0 0.00 0.00 0.00 87 1009.6
20260509163121 63 179 3.0 5.0 0.00 0.00 0.00 83 1009.8
20260509162121 62 169 3.0 5.0 0.00 0.00 0.00 85 1010.0
20260509161125 63 217 2.0 3.0 0.00 0.00 0.00 82 1010.2
20260509160125 63 199 2.0 4.0 0.00 0.00 0.00 81 1010.2
20260509155124 63 165 3.0 5.0 0.00 0.00 0.00 80 1010.4
20260509154121 65 105 2.0 4.0 0.00 0.00 0.00 76 1010.2
20260509153121 64 146 2.0 4.0 0.00 0.00 0.00 77 1010.5
20260509152121 65 143 3.0 4.0 0.00 0.00 0.00 75 1010.4
20260509151121 66 207 3.0 4.0 0.00 0.00 0.00 74 1010.4
20260509150122 65 215 3.0 6.0 0.00 0.00 0.00 74 1010.4
20260509145126 65 240 3.0 6.0 0.00 0.00 0.00 75 1010.4
20260509144125 65 272 3.0 5.0 0.00 0.00 0.00 74 1010.4
20260509143125 64 233 3.0 6.0 0.00 0.00 0.00 75 1010.5
20260509142122 63 239 2.0 4.0 0.00 0.00 0.00 77 1010.6
20260509141123 62 191 2.0 4.0 0.00 0.00 0.00 78 1010.5
20260509140122 61 144 2.0 4.0 0.00 0.00 0.00 79 1010.6
20260509135131 60 143 2.0 5.0 0.00 0.00 0.00 80 1010.6
20260509135122 60 148 2.0 5.0 0.00 0.00 0.00 80 1010.6
20260509134122 60 130 2.0 4.0 0.00 0.00 0.00 80 1010.6
20260509133125 61 132 3.0 7.0 0.00 0.00 0.00 78 1010.5
20260509132121 60 111 1.0 3.0 0.00 0.00 0.00 81 1010.7
20260509131121 59 144 2.0 4.0 0.00 0.00 0.00 84 1011.0
20260509130122 58 199 2.0 4.0 0.00 0.00 0.00 87 1011.0
20260509125121 58 210 1.0 4.0 0.00 0.00 0.00 87 1011.0
20260509124121 58 213 2.0 4.0 0.00 0.00 0.00 88 1011.1
20260509123122 58 176 2.0 3.0 0.00 0.00 0.00 89 1010.9
20260509122121 57 134 1.0 3.0 0.00 0.00 0.00 88 1011.1
20260509121121 57 226 1.0 3.0 0.00 0.00 0.00 88 1011.1